Location: Newark
(34.3481°N, 134.0494°E)
Time: 04:18:36
(UTC+00:00)

Vanguard 3 - Pass Details

Date: 02 February 2020
Orbit: 508 x 3263 km, 33.3° (Epoch: 17 February)

Event Time Altitude Azimuth Distance (km) Brightness Sun altitude
Rises 10:52:18 0° 283° (WNW) 7,127 13.1 -28.8°
Reaches altitude 10° 10:57:01 10° 281° (WNW) 6,188 12.5 -29.8°
Maximum altitude 11:16:51 69° 204° (SSW) 3,048 9.9 -33.9°
Enters shadow 11:23:17 45° 139° (SE) 3,271 9.8 -35.2°
Drops below altitude 10° 11:31:03 10° 124° (SE) 4,624 - -36.8°
Sets 11:34:02 0° 122° (ESE) 5,317 - -37.4°
